Location: Nashville
(36.1660°N, 86.7840°W)
Time: 10:32:41
(UTC-06:00)

N. Korean satellite - Visible Passes

Search period start: 03 December 2022 00:00
Search period end: 13 December 2022 00:00
Orbit: 421 x 453 km, 97.3° (Epoch: 02 December)

Date Brightness Start Highest point End Pass type
(mag) Time Alt. Az. Time Alt. Az. Time Alt. Az.
03 Dec 8.9 04:25:20 10° NE 04:28:04 22° E 04:30:45 10° SSE visible
03 Dec 8.0 05:58:17 10° NNW 06:00:21 15° WNW 06:02:24 10° WSW visible
04 Dec 6.4 05:18:24 10° N 05:21:44 53° WNW 05:24:59 10° SSW visible
04 Dec 9.8 17:18:54 10° SW 17:20:40 14° W 17:22:26 10° WNW visible
05 Dec 8.0 04:39:41 10° NNE 04:42:50 36° E 04:45:57 10° SSE visible
06 Dec 10.0 04:03:09 10° E 04:03:42 10° E 04:04:17 10° ESE visible
06 Dec 7.1 05:33:16 10° N 05:36:19 32° WNW 05:39:19 10° SW visible
07 Dec 6.8 04:54:06 10° NNE 04:57:27 61° E 05:00:44 10° S visible
08 Dec 9.4 04:16:08 10° NE 04:18:20 16° E 04:20:31 10° SE visible
08 Dec 7.7 05:48:12 10° NNW 05:50:45 20° WNW 05:53:16 10° WSW visible
09 Dec 6.2 05:08:31 10° N 05:11:54 78° W 05:15:12 10° SSW visible
09 Dec 9.5 17:08:13 10° SW 17:10:40 19° W 17:13:08 10° NW visible
10 Dec 8.6 04:29:57 10° NE 04:32:47 25° E 04:35:35 10° SSE visible
10 Dec 8.2 06:03:19 10° NW 06:04:59 13° WNW 06:06:40 10° W visible
11 Dec 6.6 05:22:56 10° N 05:26:09 45° WNW 05:29:19 10° SSW visible
11 Dec 9.9 17:23:37 10° WSW 17:25:02 12° W 17:26:26 10° WNW visible
12 Dec 7.6 04:43:52 10° NNE 04:47:03 40° E 04:50:11 10° S visible
